Regional Weather Roundup
Issued by NWS

Home | Current Version | Previous Version | Text Only | Print | Product List | Glossary Off
Versions: 1 2 3 4 5 6 7 8 9 10 11 12 13 14 15 16 17 18 19 20 21 22 23 24 25 26 27 28 29 30 31 32 33 34 35 36 37 38 39 40 41 42 43 44 45 46 47 48 49 50

000
ASUS43 KLMK 270410
RWRKY
KENTUCKY REGIONAL WEATHER ROUNDUP
NATIONAL WEATHER SERVICE LOUISVILLE KY
1100 PM EST FRI DEC 26 2014

NOTE "FAIR" INDICATES FEW OR NO CLOUDS BELOW 12,000 FEET
WITH NO SIGNIFICANT WEATHER AND/OR OBSTRUCTIONS TO VISIBILITY.

KYZ001>023-026-027-061>063-070>075-270500-
WESTERN AND SOUTH CENTRAL KENTUCKY

CITY           SKY/WX    TMP DP  RH WIND       PRES   REMARKS
PADUCAH        CLOUDY    48  38  68 S8        30.17R
HENDERSON      CLOUDY    46  37  71 S6        30.16R
OWENSBORO      MOCLDY    45  38  76 S7        30.18R
HOPKINSVILLE   PTCLDY    46  38  72 S6        30.19R
BOWLING GREEN  MOCLDY    49  36  61 S10       30.20S
GLASGOW        CLOUDY    48  35  61 S5        30.21R
$$

KYZ024-025-028>034-038-045-046-053-270500-
NORTH CENTRAL KENTUCKY

CITY           SKY/WX    TMP DP  RH WIND       PRES   REMARKS
LOUISVILLE/SDF CLOUDY    48  36  63 SE10      30.17S
LOUISVILLE/LOU MOCLDY    46  35  65 SE7       30.17F
FORT KNOX      CLOUDY    47  36  65 S10       30.17R
$$

KYZ035>037-039>044-047>052-055>060-089>105-270500-
NORTHEAST KENTUCKY

CITY           SKY/WX    TMP DP  RH WIND       PRES   REMARKS
LEXINGTON      CLOUDY    46  33  60 S10       30.20R
COVINGTON      MOCLDY    45  32  60 S7        30.18R
FRANKFORT      MOCLDY    47  32  56 S6        30.18R
$$

KYZ054-064>069-076>088-106>120-270500-
SOUTHEAST KENTUCKY

CITY           SKY/WX    TMP DP  RH WIND       PRES   REMARKS
JACKSON        CLOUDY    46  26  45 S5        30.21F
LONDON         CLOUDY    46  28  49 S3        30.24R
SOMERSET       CLOUDY    45  32  61 S3        30.25S
MIDDLESBORO    CLOUDY    43  33  69 W3        30.26S
MONTICELLO     CLOUDY    44  35  70 CALM      30.26S
$$




USA.gov is the U.S. government's official web portal to all federal, state and local government web resources and services.